| time (UTC) | temp C | wind direction | speed KPH | gust KPH | rain 1hr cm | rain 24hr cm | rain mn cm | humidity % | barometer mb |
| 20260505181529 | 20 | 294 | 14.5 | 33.8 | 0.00 | 0.00 | 0.00 | 58 | 1007.8 |
| 20260505174530 | 19 | 298 | 14.5 | 29.0 | 0.00 | 0.00 | 0.00 | 60 | 1007.8 |
| 20260505173103 | 19 | 294 | 12.9 | 29.0 | 0.00 | 0.00 | 0.00 | 60 | 1007.9 |
| 20260505171531 | 19 | 296 | 11.3 | 25.7 | 0.00 | 0.00 | 0.00 | 61 | 1007.8 |
| 20260505170106 | 18 | 294 | 12.9 | 30.6 | 0.00 | 0.00 | 0.00 | 62 | 1007.8 |
| 20260505164530 | 18 | 291 | 12.9 | 33.8 | 0.00 | 0.00 | 0.00 | 64 | 1007.8 |
| 20260505163032 | 17 | 291 | 12.9 | 29.0 | 0.00 | 0.00 | 0.00 | 65 | 1007.9 |
| 20260505161532 | 17 | 293 | 11.3 | 25.7 | 0.00 | 0.00 | 0.00 | 66 | 1007.9 |
| 20260505151533 | 16 | 291 | 9.7 | 24.1 | 0.00 | 0.00 | 0.00 | 70 | 1007.6 |
| 20260505124532 | 14 | 284 | 8.0 | 17.7 | 0.00 | 0.00 | 0.00 | 76 | 1006.3 |
| 20260505123032 | 14 | 285 | 8.0 | 20.9 | 0.00 | 0.00 | 0.00 | 75 | 1006.0 |
| 20260505121608 | 15 | 283 | 6.4 | 16.1 | 0.00 | 0.00 | 0.00 | 74 | 1005.9 |
| 20260505120030 | 15 | 280 | 8.0 | 17.7 | 0.00 | 0.00 | 0.00 | 72 | 1005.8 |
| 20260505114528 | 16 | 280 | 12.9 | 25.7 | 0.00 | 0.00 | 0.00 | 72 | 1005.7 |
| 20260505111528 | 15 | 281 | 6.4 | 12.9 | 0.00 | 0.00 | 0.00 | 75 | 1005.5 |
| 20260505101613 | 17 | 282 | 6.4 | 14.5 | 0.00 | 0.00 | 0.00 | 69 | 1005.1 |
| 20260505100108 | 17 | 267 | 9.7 | 24.1 | 0.00 | 0.00 | 0.00 | 67 | 1004.9 |
| 20260505093104 | 18 | 265 | 14.5 | 32.2 | 0.00 | 0.00 | 0.00 | 67 | 1004.7 |
| 20260505091530 | 18 | 272 | 14.5 | 29.0 | 0.00 | 0.00 | 0.00 | 66 | 1004.6 |
| 20260505090106 | 18 | 268 | 14.5 | 29.0 | 0.00 | 0.00 | 0.00 | 66 | 1004.5 |
| 20260505084532 | 18 | 269 | 12.9 | 25.7 | 0.00 | 0.00 | 0.00 | 66 | 1004.4 |
| 20260505083031 | 18 | 272 | 9.7 | 25.7 | 0.00 | 0.00 | 0.00 | 67 | 1004.4 |
| 20260505081541 | 18 | 279 | 9.7 | 22.5 | 0.00 | 0.00 | 0.00 | 65 | 1004.4 |
| 20260505080034 | 18 | 273 | 9.7 | 24.1 | 0.00 | 0.00 | 0.00 | 66 | 1004.4 |
| 20260505074603 | 18 | 279 | 6.4 | 24.1 | 0.00 | 0.00 | 0.00 | 68 | 1004.3 |
| 20260505073036 | 17 | 277 | 6.4 | 14.5 | 0.00 | 0.00 | 0.00 | 69 | 1004.2 |
| 20260505071535 | 18 | 291 | 6.4 | 12.9 | 0.00 | 0.00 | 0.00 | 68 | 1004.1 |
| 20260505064528 | 19 | 314 | 1.6 | 9.7 | 0.00 | 0.00 | 0.00 | 61 | 1003.9 |
| 20260505063037 | 20 | 278 | 9.7 | 24.1 | 0.00 | 0.00 | 0.00 | 60 | 1003.7 |
| 20260505061533 | 20 | 277 | 12.9 | 22.5 | 0.00 | 0.00 | 0.00 | 59 | 1003.6 |
| 20260505060040 | 20 | 282 | 12.9 | 27.4 | 0.00 | 0.00 | 0.00 | 56 | 1003.6 |
| 20260505053032 | 20 | 274 | 9.7 | 17.7 | 0.00 | 0.00 | 0.00 | 55 | 1003.6 |
| 20260505051534 | 21 | 277 | 6.4 | 29.0 | 0.00 | 0.00 | 0.00 | 53 | 1003.5 |
| 20260505050107 | 21 | 269 | 6.4 | 20.9 | 0.00 | 0.00 | 0.00 | 51 | 1003.4 |
| 20260505041530 | 22 | 273 | 11.3 | 29.0 | 0.00 | 0.00 | 0.00 | 49 | 1002.5 |
| 20260505040046 | 22 | 270 | 14.5 | 29.0 | 0.00 | 0.00 | 0.00 | 49 | 1002.3 |
| 20260505034529 | 22 | 270 | 14.5 | 27.4 | 0.00 | 0.00 | 0.00 | 49 | 1002.1 |
| 20260505033031 | 22 | 268 | 16.1 | 32.2 | 0.00 | 0.00 | 0.00 | 50 | 1001.8 |
| 20260505031644 | 22 | 270 | 14.5 | 30.6 | 0.00 | 0.00 | 0.00 | 53 | 1001.8 |
| 20260505030107 | 22 | 279 | 12.9 | 25.7 | 0.00 | 0.00 | 0.00 | 52 | 1001.6 |
| 20260505024532 | 22 | 285 | 11.3 | 27.4 | 0.00 | 0.00 | 0.00 | 52 | 1001.5 |
| 20260505023031 | 23 | 291 | 8.0 | 22.5 | 0.00 | 0.00 | 0.00 | 52 | 1001.5 |
| 20260505021531 | 23 | 289 | 9.7 | 20.9 | 0.00 | 0.00 | 0.00 | 51 | 1001.5 |
| 20260505014537 | 24 | 292 | 9.7 | 27.4 | 0.00 | 0.00 | 0.00 | 48 | 1001.4 |
| 20260505013031 | 25 | 291 | 11.3 | 29.0 | 0.00 | 0.00 | 0.00 | 47 | 1001.4 |
| 20260505011537 | 25 | 297 | 11.3 | 27.4 | 0.00 | 0.00 | 0.00 | 47 | 1001.4 |
| 20260505010033 | 25 | 301 | 12.9 | 29.0 | 0.00 | 0.00 | 0.00 | 45 | 1001.4 |
| 20260505004536 | 25 | 297 | 12.9 | 27.4 | 0.00 | 0.00 | 0.00 | 45 | 1001.4 |
| 20260505001532 | 26 | 299 | 14.5 | 30.6 | 0.00 | 0.00 | 0.00 | 44 | 1001.4 |
| 20260505000032 | 26 | 296 | 12.9 | 29.0 | 0.00 | 0.00 | 0.00 | 44 | 1001.5 |
| 20260504234532 | 26 | 300 | 12.9 | 29.0 | 0.00 | 0.00 | 0.00 | 44 | 1001.4 |
| 20260504233032 | 26 | 302 | 12.9 | 33.8 | 0.00 | 0.00 | 0.00 | 44 | 1001.4 |
| 20260504231529 | 26 | 299 | 14.5 | 29.0 | 0.00 | 0.00 | 0.00 | 43 | 1001.5 |
| 20260504230031 | 26 | 292 | 12.9 | 30.6 | 0.00 | 0.00 | 0.00 | 43 | 1001.7 |
| 20260504224531 | 27 | 297 | 12.9 | 22.5 | 0.00 | 0.00 | 0.00 | 42 | 1001.8 |
| 20260504223102 | 27 | 297 | 9.7 | 22.5 | 0.00 | 0.00 | 0.00 | 42 | 1002.1 |
| 20260504221531 | 27 | 294 | 11.3 | 22.5 | 0.00 | 0.00 | 0.00 | 41 | 1002.2 |
| 20260504214531 | 27 | 294 | 8.0 | 20.9 | 0.00 | 0.00 | 0.00 | 42 | 1002.4 |
| 20260504213112 | 27 | 299 | 11.3 | 24.1 | 0.00 | 0.00 | 0.00 | 42 | 1002.6 |
| 20260504210030 | 27 | 294 | 9.7 | 20.9 | 0.00 | 0.00 | 0.00 | 43 | 1002.8 |
| 20260504203052 | 26 | 296 | 9.7 | 22.5 | 0.00 | 0.00 | 0.00 | 43 | 1003.1 |
| 20260504201529 | 26 | 290 | 11.3 | 22.5 | 0.00 | 0.00 | 0.00 | 44 | 1003.3 |
| 20260504200146 | 25 | 291 | 11.3 | 24.1 | 0.00 | 0.00 | 0.00 | 45 | 1003.5 |
| 20260504194646 | 25 | 296 | 11.3 | 25.7 | 0.00 | 0.00 | 0.00 | 46 | 1003.5 |
| 20260504193031 | 25 | 292 | 9.7 | 25.7 | 0.00 | 0.00 | 0.00 | 46 | 1003.6 |
| 20260504190032 | 24 | 294 | 11.3 | 27.4 | 0.00 | 0.00 | 0.00 | 47 | 1003.8 |
| 20260504184602 | 24 | 291 | 9.7 | 24.1 | 0.00 | 0.00 | 0.00 | 47 | 1003.9 |
| 20260504183031 | 24 | 291 | 9.7 | 20.9 | 0.00 | 0.00 | 0.00 | 49 | 1003.9 |